Regional Weather Roundup
Issued by NWS

Home | Current Version | Previous Version | Text Only | Print | Product List | Glossary Off
Versions: 1 2 3 4 5 6 7 8 9 10 11 12 13 14 15 16 17 18 19 20 21 22 23 24 25 26 27 28 29 30 31 32 33 34 35 36 37 38 39 40 41 42 43 44 45 46 47 48 49 50

000
ASUS45 KCYS 271310
RWRWY

WYOMING REGIONAL WEATHER ROUNDUP
NATIONAL WEATHER SERVICE CHEYENNE WY
600 AM MST FRI FEB 27 2015

NOTE:  "FAIR" INDICATES FEW OR NO CLOUDS BELOW 12,000 FEET
WITH NO SIGNIFICANT WEATHER AND/OR OBSTRUCTIONS TO VISIBILITY.

WYZ001-271400-
YELLOWSTONE NATIONAL PARK

CITY           SKY/WX    TMP DP  RH WIND       PRES   REMARKS
LK YELLOWSTONE   N/A     -5 -10  79 CALM      29.79S
W YELLOWSTONE  NOT AVBL

$$
WYZ002>013-054>058-071-098>099-271400-
NORTHERN WYOMING

CITY           SKY/WX    TMP DP  RH WIND       PRES   REMARKS
JACKSON        CLOUDY     9   3  78 NW6       29.84F WCI  -1
CODY           FAIR       0   0 100 CALM      29.90F
GREYBULL       FAIR       9   2  73 SE3       30.01F
WORLAND        FAIR       3  -3  76 CALM      29.98F
SHERIDAN       FAIR     -13 -17  82 CALM      30.00F
BUFFALO        FAIR      -1  -5  82 S12       29.91F WCI -18
GILLETTE       FAIR       2  -3  80 S22G29    30.01F WCI -20
HULETT         FAIR       5  -4  66 SW6       30.06F WCI  -6
NEWCASTLE      FAIR       3  -6  66 MISG      30.12F

$$
WYZ014>020-022>026-101>103-271400-
CENTRAL WYOMING

CITY           SKY/WX    TMP DP  RH WIND       PRES   REMARKS
BIG PINEY      CLOUDY     9   3  77 E3        29.85F
PINEDALE       PTSUNNY    5   1  85 NE3       29.85F
DUBOIS         FAIR       0  -4  85 CALM      29.76F
LANDER         MOCLDY    -3  -8  79 W7        29.91S WCI -16
RIVERTON       FAIR      -5  -8  87 NW5       29.93S WCI -16
CASPER         FAIR      -2  -6  83 CALM      29.95F
DOUGLAS        FAIR       4   1  88 SE17      30.01F WCI -16

$$
WYZ021-027>030-104>119-271400-
SOUTHERN WYOMING

CITY           SKY/WX    TMP DP  RH WIND       PRES   REMARKS
EVANSTON       CLOUDY    12   9  87 E8        29.80F WCI   0
FORT BRIDGER   LGT SNOW  10   9  95 E5        29.86F WCI   2
ROCK SPRINGS   FAIR       3  -2  79 E6        29.86S WCI  -8
DIXON          CLOUDY     8   3  80 CALM      29.89S
RAWLINS        FAIR      -2  -7  79 E5        29.85S WCI -12
SARATOGA       FAIR      -8 -11  84 MISG      29.84S
LARAMIE        FAIR      -2  -5  87 S16       29.81F WCI -23
CHEYENNE       LGT SNOW   3  -1  83 S15       29.95S VSB 1   WCI -16
TORRINGTON     CLOUDY     6   0  76 SE13      30.14F WCI -10
PINE BLUFFS    FLURRIES   5   3  92 MISG      30.05F

$$



USA.gov is the U.S. government's official web portal to all federal, state and local government web resources and services.